Location: Monteux
(44.0348°N, 4.9972°E)
Time: 17:47:52
(UTC+00:00)

Okean-O - Pass Details

Date: 30 November 2020
Orbit: 639 x 640 km, 98.2° (Epoch: 17 January)

Event Time Altitude Azimuth Distance (km) Brightness Sun altitude
Rises 17:33:46 0° 144° (SE) 2,933 5.8 -15.8°
Reaches altitude 10° 17:36:05 10° 136° (SE) 2,028 4.9 -16.2°
Maximum altitude 17:40:07 37° 69° (ENE) 1,008 3.1 -16.9°
Drops below altitude 10° 17:44:12 10° 3° (N) 2,043 5.0 -17.6°
Sets 17:46:32 0° 355° (N) 2,957 6.0 -18.0°
